RH
100 98 96 91 90 85 85 85 75 59 41 35 32 25 23 20 17 16 13 13 11 12 14 17 23 27 34 42 38 27 18 16 16 17 18 18 16 17 23 25 30 35 49 48 76 87 50 66 71 81 73 65 64 47
79 81 73 60 53 44 33 29 24 20 16 15 14 14 13 13 12 11 12 13 15 21 34 40 45 44 33 22 17 16 17 19 20 19 15 15 19 23 29 25 42 48 71 76 71 60 53 60 70 50 60 53 39 49
68 67 62 51 40 32 24 21 18 16 14 14 13 12 10 11 13 19 24 31 42 46 49 46 32 25 22 20 19 21 22 20 17 18 21 24 26 34 35 38 39 43 66 72 65 43 58 54 50 48 50 44 47 68
44 40 36 31 26 22 18 16 15 14 15 15 14 15 19 25 30 37 47 54 51 46 40 33 30 27 23 20 20 19 20 23 27 29 30 34 44 55 45 40 38 55 60 50 53 81 76 100 87 82 82 87 84 91
26 24 24 23 22 22 23 23 25 25 23 22 24 29 40 47 48 50 50 46 49 45 40 35 27 22 22 22 24 28 40 54 64 83 76 67 62 57 42 36 57 67 43 66 87 100 100 100 100 100 100 100 100 100
40 44 43 40 38 38 36 39 40 41 43 43 50 59 64 64 62 56 50 53 51 45 24 23 26 26 20 15 13 18 81 100 100 100 86 68 60 48 38 53 77 61 68 76 86 80 76 75 85 93 82 77 74 78
44 43 44 49 55 62 67 66 63 60 57 57 61 64 66 66 62 56 51 41 32 24 24 31 31 46 39 37 45 52 62 51 61 67 78 69 61 38 36 51 65 62 65 71 100 100 98 100 100 100 95 93 100 100
70 72 72 75 78 74 72 68 65 65 67 69 69 70 67 66 58 48 38 28 23 26 34 35 36 49 64 69 60 66 79 74 94 82 80 60 44 37 34 53 45 54 71 84 100 98 99 98 98 93 90 92 69 66
70 75 74 74 73 73 66 61 59 59 60 63 70 72 69 55 40 34 25 23 32 28 42 45 51 72 82 99 100 100 100 100 94 90 44 38 45 80 87 100 100 100 95 98 100 99 100 97 94 91 97 80 47 58
53 59 61 62 64 52 36 31 26 23 32 52 61 53 43 39 28 23 25 44 31 36 52 56 78 92 99 95 95 96 90 96 100 81 91 82 81 79 100 98 100 100 100 100 100 100 100 100 100 100 100 45 42 58
26 32 35 36 33 29 23 27 39 46 47 46 41 32 24 24 26 41 53 38 37 53 62 76 99 100 99 99 88 94 100 96 95 87 78 84 100 99 85 91 100 100 100 100 100 98 100 100 91 98 100 66 49 50
30 35 34 38 40 40 46 51 42 30 26 25 26 29 47 60 56 54 39 38 47 58 74 90 99 97 95 98 100 99 100 100 100 86 98 100 100 91 96 100 97 100 100 100 100 98 97 98 100 100 100 100 93 84
31 36 39 37 49 54 33 26 28 27 26 28 56 68 65 56 48 36 49 51 61 75 96 100 93 94 94 96 100 100 100 100 100 100 100 100 100 98 94 100 100 100 100 97 97 100 100 97 87 98 100 100 100 100
24 24 27 44 46 32 25 25 27 28 37 62 76 76 67 60 43 50 55 76 98 95 94 97 94 94 97 100 100 100 96 96 93 88 100 100 89 96 100 99 92 100 100 86 72 82 97 100 99 76 60 92 100 100
24 30 36 36 30 27 28 29 37 69 87 86 89 88 67 56 58 63 62 93 99 97 99 98 91 95 99 100 100 86 86 74 82 98 100 99 93 89 73 77 83 76 76 52 40 44 46 60 68 91 88 55 54 96
30 31 32 37 46 60 74 85 90 98 96 99 100 89 54 54 56 57 55 80 95 95 94 96 100 100 100 100 100 100 100 98 88 78 63 57 52 43 44 43 36 36 38 36 33 35 37 37 35 36 43 57 46 43
26 33 46 52 62 76 85 91 87 86 92 100 99 84 54 44 45 40 45 70 78 80 83 82 84 94 92 93 95 87 74 55 38 32 29 28 28 34 40 44 44 42 39 34 31 30 28 28 30 31 30 32 38 38
21 23 22 20 20 20 25 30 41 62 86 86 86 76 62 40 35 33 43 54 39 40 46 47 53 55 48 47 45 41 34 33 42 53 54 61 70 73 76 77 73 67 63 57 46 38 33 28 26 25 26 26 26 30
31 29 33 31 26 18 17 19 20 29 34 35 42 38 36 29 24 26 29 28 24 27 25 20 20 24 44 40 41 48 59 81 86 87 82 82 80 78 77 79 79 76 72 63 56 49 44 40 33 28 24 24 25 24
42 48 51 54 54 57 42 25 18 16 17 19 18 18 21 22 20 20 21 21 18 17 18 30 58 79 83 85 85 77 80 83 85 88 91 86 81 78 77 73 70 66 61 56 50 46 45 38 35 33 31 28 29 26
49 49 50 54 53 51 55 58 64 68 70 66 49 39 32 25 23 21 23 25 42 86 92 88 80 82 85 85 88 89 92 96 95 90 82 83 95 94 89 87 84 82 80 77 68 59 53 48 41 33 31 30 28 30
63 59 56 56 61 65 68 69 70 72 79 81 82 87 91 90 92 85 81 82 95 97 82 96 98 90 87 95 100 98 100 100 92 96 97 98 100 100 100 100 98 96 93 88 81 72 64 52 40 31 28 32 36 35
98 90 80 75 74 74 95 92 89 89 94 100 98 99 100 100 100 100 98 100 100 100 100 100 100 99 98 100 100 100 100 100 100 100 100 100 100 95 86 80 76 71 61 55 49 43 40 36 31 25 24 27 31 36
97 88 77 78 100 100 100 100 100 93 95 100 95 99 100 97 86 86 95 100 95 91 90 89 92 96 99 100 100 100 98 96 92 84 72 69 70 77 83 79 72 63 49 36 25 19 15 13 12 12 14 18 21 22
88 82 67 63 74 81 84 76 71 70 78 86 95 100 100 97 86 70 58 60 55 52 53 48 49 47 44 46 56 53 55 64 63 73 81 90 83 77 76 63 44 31 22 17 14 12 11 10 9 8 9 11 14 15
82 58 57 65 60 56 53 61 69 76 87 92 87 83 86 62 44 27 30 21 21 20 21 23 23 24 25 28 28 36 53 64 70 76 75 72 65 56 43 28 18 15 14 13 13 13 13 12 11 10 9 9 10 12
69 63 62 62 56 58 63 70 78 84 90 92 96 100 86 64 31 24 21 20 21 24 22 21 22 24 24 27 33 38 42 47 54 58 62 61 51 34 20 15 16 19 22 25 26 24 23 22 20 18 15 13 11 10
80 76 64 62 63 69 75 84 96 100 96 100 92 90 59 43 29 26 21 22 23 23 22 24 25 26 27 33 36 43 50 56 59 65 63 50 26 18 18 22 27 32 38 46 54 52 50 56 60 59 52 35 30 19
86 82 73 72 78 84 90 100 98 99 100 100 96 76 47 30 24 22 22 24 23 23 24 26 26 29 33 42 48 53 57 60 65 68 55 29 22 32 40 50 66 80 80 70 68 63 58 58 69 78 80 69 57 38
98 93 87 90 93 98 100 92 96 100 100 100 84 42 29 24 21 23 24 25 24 24 26 27 29 34 44 51 58 62 65 71 73 62 36 22 25 35 44 53 74 89 95 96 87 78 74 67 67 74 78 74 62 50
96 97 96 99 100 100 98 96 99 100 100 86 57 32 22 21 23 25 26 24 26 28 28 33 36 41 50 58 65 80 90 84 70 45 28 29 36 50 52 57 74 94 97 100 100 99 93 90 86 86 87 83 73 59
100 100 100 100 100 100 100 100 100 86 66 51 39 24 23 24 26 26 27 27 28 30 32 34 41 47 54 67 86 95 91 81 58 34 29 32 41 54 55 66 81 96 100 100 100 100 100 100 100 100 99 98 100 96
100 100 100 98 100 100 100 100 99 80 41 24 21 22 24 28 28 27 29 30 31 34 37 44 50 58 70 86 96 96 91 69 40 30 30 35 45 49 53 66 78 92 100 100 100 100 100 100 100 100 100 100 100 99
Wind_Speed
29 27 26 25 26 23 23 20 17 15 13 10 6 4 2 4 7 11 14 18 19 21 24 26 29 30 30 30 31 33 35 35 36 35 34 32 30 28 29 30 33 31 34 35 36 40 44 40 41 43 45 46 47 49
23 23 23 21 19 18 17 13 10 8 5 5 3 4 6 8 11 15 19 19 21 25 24 25 25 24 25 28 30 33 34 33 32 28 28 29 29 31 32 32 33 35 38 42 44 47 47 47 51 50 53 55 52 54
14 13 12 11 10 8 7 6 6 5 5 7 8 10 13 15 16 18 20 21 20 20 22 21 22 25 27 30 30 29 30 32 31 31 31 32 32 29 32 34 35 34 35 41 45 38 37 39 40 40 33 24 21 20
10 10 8 8 7 7 7 7 9 10 12 14 15 16 17 18 18 18 17 16 16 18 19 22 25 27 29 31 29 29 33 34 36 35 32 28 26 30 30 31 30 16 22 23 11 13 15 15 21 22 22 25 29 31
9 9 10 10 10 10 11 12 14 16 17 18 17 16 16 15 16 15 15 15 16 18 21 24 26 27 29 31 35 37 37 35 30 25 25 27 25 26 28 11 2 16 16 8 9 14 22 20 22 27 31 31 33 36
11 11 12 13 14 16 17 18 18 18 17 15 13 13 13 14 15 16 15 15 17 17 17 20 24 23 26 29 33 34 28 29 27 27 26 21 20 23 4 4 8 5 10 16 21 23 27 32 38 36 32 31 32 32
15 16 16 17 17 17 16 15 14 13 12 11 12 13 13 14 14 13 13 14 14 15 16 11 7 11 14 11 7 8 11 13 15 13 10 13 13 4 6 8 15 15 16 18 23 35 38 39 34 30 28 25 26 30
10 10 11 11 11 11 11 11 12 13 14 14 14 14 14 14 13 14 13 12 13 13 10 6 4 7 8 8 8 5 2 2 3 5 7 11 8 1 5 10 11 15 21 25 32 43 34 27 23 18 20 27 24 22
11 12 12 11 11 11 12 12 12 13 14 14 14 14 14 13 12 12 11 13 10 9 11 9 2 7 7 5 4 3 2 4 2 3 7 8 7 5 6 5 11 16 21 26 35 32 30 24 18 18 25 24 18 24
10 10 9 9 8 9 10 11 13 13 13 13 12 11 11 11 11 13 13 9 10 14 13 7 3 7 6 3 3 2 3 4 7 4 3 8 8 8 9 11 16 20 23 30 31 24 22 17 17 20 21 19 22 27
7 7 7 6 6 6 6 7 7 7 6 6 7 8 10 12 13 11 9 10 16 13 10 4 1 3 2 4 4 5 3 3 3 9 10 8 9 12 15 17 19 27 32 38 32 29 28 22 17 18 21 20 22 25
5 5 5 5 8 10 9 8 6 5 5 6 8 11 10 8 8 10 9 17 15 12 9 4 2 1 5 5 4 4 3 3 3 11 12 9 13 18 16 19 24 28 32 37 27 27 28 27 22 22 23 24 24 24
5 6 8 9 9 6 6 5 5 6 9 11 12 7 6 7 9 10 18 16 12 11 8 5 2 1 4 4 2 1 2 3 0 1 7 12 17 19 21 23 29 32 35 34 32 29 26 27 28 26 23 25 26 23
6 6 7 7 5 5 6 8 11 13 14 13 8 5 6 8 8 16 17 12 8 6 6 5 3 4 4 4 2 2 3 4 4 7 7 15 20 22 24 27 29 31 38 34 32 31 28 25 25 25 26 25 22 22
6 6 6 7 8 10 12 14 15 15 12 10 5 6 8 9 15 16 15 11 6 5 5 4 3 3 3 3 5 5 9 10 10 10 14 20 25 30 33 33 36 38 35 36 35 32 30 29 27 26 25 25 24 22
3 4 7 9 10 11 12 13 13 11 9 8 5 7 6 16 17 15 14 13 8 6 6 4 5 6 6 9 12 13 15 18 19 19 25 30 32 34 36 37 38 37 36 37 38 37 35 32 31 28 26 26 25 22
3 5 8 10 11 12 13 13 13 11 10 8 10 9 7 18 17 15 13 13 10 8 10 11 11 13 14 14 18 24 24 27 30 33 36 38 39 39 38 38 38 39 39 41 41 41 41 40 38 34 30 28 27 26
5 7 8 9 10 11 11 10 8 6 9 13 13 12 10 18 19 16 14 16 15 15 16 17 18 20 22 24 28 31 32 36 38 39 39 40 40 40 41 41 41 42 42 43 45 45 45 44 44 42 38 34 31 29
5 6 7 8 9 9 9 8 7 1 5 6 7 9 8 17 20 18 19 21 21 21 24 25 26 25 29 34 36 39 40 39 39 40 40 40 41 42 42 43 44 45 46 47 48 49 48 48 48 47 46 43 40 36
5 5 5 6 7 8 8 7 7 6 6 4 4 2 5 13 17 19 21 23 26 28 29 31 31 34 37 37 39 38 38 39 41 41 41 43 44 45 47 49 51 52 53 54 54 55 55 55 53 51 52 51 47 45
10 9 7 3 2 4 4 4 4 4 6 7 7 6 7 10 14 18 22 26 28 29 29 30 32 33 35 37 38 39 40 42 44 46 47 47 49 52 54 56 58 58 58 59 60 60 60 59 59 56 51 52 54 52
15 15 14 12 8 7 5 3 3 3 4 5 4 6 7 10 13 16 18 22 25 29 30 31 32 33 35 35 34 40 40 48 51 53 53 55 56 57 59 60 61 62 62 62 64 65 65 64 60 55 51 48 51 53
20 20 20 19 15 13 13 17 17 15 13 13 16 20 22 23 25 26 26 26 29 31 31 34 36 38 39 39 40 44 47 50 53 55 56 59 60 61 61 61 62 63 63 62 61 60 59 58 57 54 50 45 45 50
19 20 20 22 20 19 19 21 24 25 25 26 21 19 21 26 28 31 31 34 35 36 37 39 41 42 43 44 46 49 52 54 55 56 57 57 59 61 63 65 66 66 65 64 62 58 55 53 52 52 51 49 45 46
18 17 15 11 14 17 19 18 20 19 19 20 22 25 26 31 34 36 34 35 36 38 39 40 41 42 44 45 47 49 51 53 54 55 57 59 61 64 66 67 68 67 66 65 63 61 59 56 53 49 49 50 49 45
18 15 11 13 16 17 17 18 19 21 23 24 25 27 30 32 32 33 34 36 38 39 40 42 43 45 47 50 53 55 56 56 56 56 58 60 62 64 64 63 63 63 63 62 60 57 53 51 49 47 45 47 49 48
17 14 15 20 19 19 19 20 22 22 24 25 27 29 33 35 34 34 36 38 40 42 43 44 46 48 51 54 56 58 59 59 58 58 59 61 62 61 61 60 58 55 53 51 49 47 45 42 41 40 40 41 44 46
18 19 18 20 18 19 20 22 24 26 26 28 29 31 34 36 37 38 39 41 43 45 45 47 50 52 56 59 59 60 59 58 57 57 57 58 58 56 55 52 49 46 43 41 40 38 37 36 34 34 34 35 37 41
21 24 19 19 22 22 23 26 27 27 29 30 31 33 34 36 39 39 41 44 46 46 47 49 53 58 60 61 61 60 57 56 55 55 55 53 50 46 46 44 42 41 41 40 39 38 36 33 28 25 27 30 31 34
25 26 22 19 18 19 23 27 27 30 32 33 34 34 35 38 40 41 43 46 47 47 49 53 58 61 61 61 59 57 57 56 55 55 53 51 47 43 40 37 34 34 34 33 32 31 33 32 28 25 22 24 27 29
28 23 18 17 17 22 26 29 32 34 35 36 36 36 37 40 42 42 44 46 48 49 52 57 60 61 60 56 54 54 54 55 55 54 53 50 45 42 41 34 29 28 29 27 26 25 24 24 24 22 20 19 21 23
24 19 19 18 21 26 30 32 35 37 36 36 37 38 40 43 44 45 46 48 48 50 55 58 60 60 57 54 52 52 52 53 54 52 50 48 43 39 36 28 23 23 24 24 22 20 19 18 18 18 16 16 17 18
26 24 23 26 27 28 32 37 40 41 37 36 36 39 41 44 46 46 46 47 49 53 56 59 59 58 54 52 51 50 51 52 52 50 47 43 39 37 30 21 18 18 19 19 19 17 15 13 12 11 11 12 14 15
Wind_Direction
105 107 110 106 106 106 108 112 112 115 120 125 130 163 227 276 285 288 291 293 290 283 277 271 267 264 263 261 261 262 263 267 268 270 273 273 273 275 282 285 285 283 276 275 273 272 278 278 275 274 273 272 274 271
94 98 102 105 108 114 119 123 123 121 135 173 236 284 275 257 270 281 285 276 263 259 256 254 257 262 261 262 266 272 275 275 273 268 266 267 277 281 281 286 281 279 282 283 284 282 280 280 279 278 279 278 277 277
95 105 112 119 126 130 134 152 175 196 213 226 237 247 253 252 245 241 241 241 241 244 251 254 256 264 272 275 277 274 270 267 267 267 272 275 278 280 281 286 288 292 289 283 282 293 288 286 287 289 299 308 304 299
133 140 146 157 170 182 197 215 225 232 235 235 241 245 243 238 238 237 235 239 248 252 261 268 274 278 279 277 274 269 265 267 267 269 272 273 278 279 285 289 297 280 276 286 310 313 311 318 309 306 301 298 298 300
187 195 201 207 218 233 240 246 243 242 242 241 240 238 239 239 241 243 246 253 259 265 271 274 277 279 278 277 274 270 268 265 265 261 265 271 276 275 287 298 257 263 273 314 351 321 322 320 301 296 299 298 294 291
223 227 233 237 240 243 245 247 247 247 247 243 242 246 247 245 244 242 247 255 265 268 272 282 291 294 295 287 270 259 241 246 254 258 264 268 264 279 231 216 248 283 318 318 333 323 312 314 315 307 304 298 292 292
238 242 243 245 248 249 248 247 246 249 250 254 253 249 246 247 252 257 260 264 261 259 279 277 313 347 9 350 314 259 252 249 255 257 245 239 244 226 163 198 235 286 309 313 308 318 315 308 311 305 303 305 307 308
214 225 231 228 231 236 237 239 243 243 242 242 242 241 241 241 245 251 255 253 258 276 235 239 304 7 12 16 45 62 88 128 181 173 198 214 234 283 181 255 273 286 292 295 315 320 323 322 315 313 313 315 325 326
208 210 216 221 223 226 235 240 243 246 246 242 238 235 236 237 243 240 249 264 267 230 201 220 249 24 10 348 326 325 302 271 246 235 235 228 244 233 219 254 272 274 301 309 314 327 332 325 317 311 318 319 329 337
217 218 221 227 237 249 255 255 251 244 234 227 223 223 225 232 240 254 265 235 217 193 198 200 57 13 347 35 84 138 193 206 199 245 213 174 175 203 245 279 301 308 317 327 339 337 335 321 300 301 312 316 322 328
222 220 222 230 234 227 202 172 150 152 168 193 212 230 246 259 264 253 220 213 188 195 201 211 97 3 88 97 110 116 117 142 174 163 158 180 221 260 273 285 312 318 320 332 337 345 349 341 311 304 314 316 320 322
165 170 173 156 147 143 141 145 157 176 216 251 269 278 270 254 247 230 241 191 192 207 216 220 259 86 114 117 112 85 89 119 159 195 202 224 261 275 290 303 312 311 322 330 334 340 345 348 337 319 313 320 324 327
135 144 148 154 156 166 178 193 230 271 285 291 292 272 265 271 267 231 179 179 193 210 208 217 202 199 162 137 124 103 82 78 245 307 298 251 270 280 286 294 306 307 314 327 330 331 336 339 342 343 326 317 320 325
137 149 162 179 209 233 254 268 283 293 295 290 283 275 277 281 209 174 170 178 203 216 232 246 221 222 211 218 252 266 293 266 268 316 312 261 284 292 296 294 296 302 312 317 321 322 324 327 329 333 338 339 320 319
160 185 213 242 260 272 279 287 292 295 286 286 267 263 281 209 184 179 182 195 222 236 237 218 233 247 256 216 224 262 291 286 288 287 289 265 277 284 289 293 299 304 305 306 309 310 313 315 318 320 326 330 336 333
254 271 283 287 290 292 292 293 296 296 294 296 256 260 251 193 188 187 197 216 246 267 260 253 262 253 252 239 250 255 262 272 279 279 284 284 285 289 290 294 298 299 298 297 299 302 304 305 307 309 310 314 319 325
318 307 302 304 303 299 296 293 291 287 287 255 251 253 227 200 191 197 210 235 251 271 280 276 274 273 274 267 270 270 273 281 286 288 289 291 292 294 293 291 291 291 292 292 293 295 296 297 298 299 300 301 302 306
326 326 327 328 332 335 330 323 317 298 261 257 258 252 251 217 208 210 225 246 260 265 272 278 279 275 287 290 284 283 288 291 293 293 291 291 291 290 290 289 289 290 290 290 291 292 291 290 290 290 290 289 289 290
348 338 347 354 357 356 2 5 18 358 294 305 285 276 236 212 212 221 237 251 261 268 274 280 286 296 295 290 289 290 292 293 291 289 291 291 291 291 291 291 290 290 290 290 291 291 291 291 289 285 282 281 281 279
300 314 334 350 360 357 360 6 360 7 15 5 353 352 212 219 228 238 252 268 276 281 288 293 293 289 289 290 291 292 291 290 289 289 289 290 291 291 292 291 291 292 291 291 291 291 291 289 287 285 282 277 273 273
269 273 280 299 18 37 32 6 351 332 321 316 307 294 281 265 259 260 265 272 280 285 286 289 292 293 293 294 294 292 292 289 287 287 290 293 294 294 294 296 296 295 294 292 291 291 290 289 287 283 278 273 271 268
267 273 274 271 271 272 273 254 257 264 260 260 297 321 296 289 286 284 287 289 289 287 293 292 291 293 294 292 295 291 288 288 295 296 296 294 294 294 295 295 294 293 292 291 291 291 290 289 287 284 277 270 266 263
265 266 271 275 273 274 276 283 283 288 283 275 287 300 303 303 302 302 303 301 299 302 300 297 297 297 296 293 288 287 289 291 292 292 292 293 294 293 292 292 292 291 291 291 289 287 285 284 283 282 279 271 265 260
268 269 266 273 281 280 279 274 278 287 296 299 312 311 306 302 305 304 304 301 301 298 296 294 294 294 293 293 292 291 291 291 293 294 297 298 299 299 299 298 297 296 295 294 292 290 286 282 278 275 274 272 267 261
261 255 251 264 273 278 278 285 294 301 306 309 309 306 305 302 300 299 304 305 302 302 300 300 300 300 299 298 298 298 300 304 305 304 304 303 301 301 300 299 297 296 294 293 292 290 288 286 281 275 267 264 263 259
246 235 234 243 254 265 276 289 293 300 304 303 302 299 297 298 306 311 312 313 313 313 312 309 307 306 306 306 304 305 307 306 306 304 302 300 299 298 298 296 295 295 294 292 291 289 286 284 280 274 268 261 258 255
222 222 225 242 251 261 268 275 283 289 292 296 298 301 304 307 309 312 312 313 315 313 310 309 308 307 305 304 306 307 308 308 308 306 304 304 303 302 301 300 299 298 296 294 292 290 287 283 277 271 264 260 257 253
216 224 232 242 249 256 266 272 282 287 291 296 299 302 306 307 310 311 313 313 312 312 311 310 308 306 305 308 310 310 310 310 308 308 308 307 307 308 307 306 305 302 299 295 292 291 290 286 279 272 266 260 257 254
214 229 240 251 260 269 278 282 287 294 296 299 304 306 307 307 307 310 311 311 311 311 311 309 307 306 310 311 310 311 311 310 311 312 312 313 314 313 312 311 310 311 310 306 301 295 290 287 284 274 263 257 253 251
226 236 246 256 270 276 276 293 303 302 306 308 307 307 307 306 309 310 310 309 310 311 310 308 307 309 311 311 312 312 311 313 314 315 316 317 317 315 314 308 305 307 309 309 305 299 294 291 289 284 270 256 250 247
227 236 250 268 282 283 297 306 309 309 310 308 306 305 307 308 310 309 307 309 311 311 308 307 309 309 310 312 311 311 313 315 316 317 317 318 319 318 317 310 305 307 312 312 308 303 296 290 286 284 276 259 248 243
230 239 256 277 286 291 296 300 310 313 309 308 307 306 306 308 308 308 309 310 310 308 307 307 308 311 312 313 312 313 315 316 317 318 318 317 317 316 316 306 301 305 312 314 312 307 301 294 287 282 272 257 249 243
237 255 270 277 284 292 297 301 308 310 307 304 306 305 306 304 304 308 310 311 309 308 308 309 311 314 315 313 313 316 317 318 318 318 318 320 318 318 318 309 304 306 311 312 311 310 307 301 290 279 267 256 251 248